Sligo Airport, Ireland

8:54 AM IST on May 27, 2017 (GMT +0100)
Sligo

Weather History for EISG - February, 2014

Change the Weather History Date:

Sunday, February 23, 2014

  Actual Average Record
Temperature  
Mean Temperature 47 °F -  
Max Temperature 50 °F - - ()
Min Temperature 44 °F - - ()
Degree Days  
Heating Degree Days 18    
Moisture  
Dew Point 42 °F    
Average Humidity 81    
Maximum Humidity 93    
Minimum Humidity 71    
Precipitation  
Precipitation 0.00 in - - ()
Sea Level Pressure  
Sea Level Pressure 29.19 in    
Wind  
Wind Speed 9 mph ()    
Max Wind Speed 17 mph    
Max Gust Speed 30 mph    
Visibility 6.2 miles    
Events Rain    
T = Trace of Precipitation, MM = Missing Value Source: Averaged Metar Reports

Daily Weather History Graph

Daily Weather History Graph

Search for Another Location

Airport or City:

Trip Planner

Search our weather history database for the weather conditions in past years. The results will help you decide how hot, cold, wet, or windy it might be!

Date:

Astronomy

Feb. 23, 2014 Rise Set
Actual Time 7:37 AM GMT 5:58 PM GMT
Civil Twilight 7:01 AM GMT 6:35 PM GMT
Nautical Twilight 6:20 AM GMT 7:16 PM GMT
Astronomical Twilight 5:38 AM GMT 7:57 PM GMT
Moon 2:49 AM GMT (2/23) 11:20 AM GMT (2/23)
Length of Visible Light 11h 33m
Length of Day
10h 21m
Last Quarter, 41% of the Moon is Illuminated
Feb 23
Last Quarter
Mar 1
New
Mar 8
First Quarter
Mar 16
Full
Mar 24
Last Quarter

Hourly Weather History & Observations

Time (GMT) Temp. Windchill Dew Point Humidity Pressure Visibility Wind Dir Wind Speed Gust Speed Precip Events Conditions
7:30 AM 44.6 °F 40.7 °F 41.0 °F 87% 29.09 in 6.2 mi SSE 6.9 mph - N/A   Overcast
8:00 AM 44.6 °F 39.7 °F 42.8 °F 93% 29.09 in 6.2 mi SSE 9.2 mph - N/A   Scattered Clouds
9:00 AM 44.6 °F 38.8 °F 42.8 °F 93% 29.12 in 6.2 mi South 11.5 mph 24.2 mph N/A   Mostly Cloudy
9:30 AM 46.4 °F 40.7 °F 42.8 °F 87% 29.12 in 6.2 mi South 12.7 mph 25.3 mph N/A Rain Light Rain
10:00 AM 46.4 °F 40.4 °F 42.8 °F 87% 29.12 in 6.2 mi SSW 13.8 mph 28.8 mph N/A   Scattered Clouds
10:30 AM 46.4 °F 41.5 °F 42.8 °F 87% 29.15 in 6.2 mi SSW 10.4 mph 23.0 mph N/A Rain Light Rain
11:00 AM 44.6 °F 37.8 °F 41.0 °F 87% 29.15 in 6.2 mi SSW 15.0 mph 29.9 mph N/A   Scattered Clouds
11:30 AM 48.2 °F - 42.8 °F 82% 29.15 in 6.2 mi South 9.2 mph - N/A   Scattered Clouds
12:00 PM 50.0 °F - 44.6 °F 82% 29.18 in 6.2 mi SSW 13.8 mph 29.9 mph N/A   Partly Cloudy
12:30 PM 50.0 °F - 42.8 °F 76% 29.18 in 6.2 mi SSW 13.8 mph 25.3 mph N/A   Partly Cloudy
1:00 PM 50.0 °F - 42.8 °F 76% 29.18 in 6.2 mi SSW 13.8 mph 28.8 mph N/A   Scattered Clouds
1:30 PM 50.0 °F - 42.8 °F 76% 29.21 in 6.2 mi SSW 17.3 mph - N/A   Scattered Clouds
2:00 PM 50.0 °F - 42.8 °F 76% 29.21 in 6.2 mi SSW 13.8 mph - N/A   Partly Cloudy
3:30 PM 50.0 °F - 42.8 °F 76% 29.24 in 6.2 mi SSW 11.5 mph 26.5 mph N/A   Partly Cloudy
4:00 PM 50.0 °F - 41.0 °F 71% 29.24 in 6.2 mi SSW 11.5 mph 26.5 mph N/A   Partly Cloudy
4:30 PM 48.2 °F - 41.0 °F 76% 29.27 in 6.2 mi South 8.1 mph - N/A   Scattered Clouds
5:00 PM 48.2 °F - 41.0 °F 76% 29.27 in 6.2 mi SSW 8.1 mph - N/A   Scattered Clouds
5:30 PM 48.2 °F - 41.0 °F 76% 29.30 in 6.2 mi SSW 5.8 mph - N/A   Partly Cloudy
6:00 PM 46.4 °F 43.5 °F 39.2 °F 76% 29.30 in - SSW 5.8 mph - N/A   Clear